| time (UTC) | temp F | wind direction | speed knots | gust knots | rain 1hr in | rain 24hr in | rain mn in | humidity % | barometer mb |
| 20260905234850 | 79 | 71 | 2.6 | 3.5 | 0.00 | 0.00 | 0.00 | 78 | 1016.5 |
| 20260905234345 | 80 | 20 | 1.7 | 2.6 | 0.00 | 0.00 | 0.00 | 78 | 1016.4 |
| 20260905233840 | 80 | 70 | 3.5 | 3.5 | 0.00 | 0.00 | 0.00 | 78 | 1016.3 |
| 20260905233335 | 80 | 39 | 5.2 | 6.1 | 0.00 | 0.00 | 0.00 | 78 | 1016.4 |
| 20260905232834 | 80 | 49 | 1.7 | 1.7 | 0.00 | 0.00 | 0.00 | 77 | 1016.1 |
| 20260905232331 | 80 | 124 | 7.8 | 7.8 | 0.00 | 0.00 | 0.00 | 77 | 1016.3 |
| 20260905231826 | 81 | 80 | 2.6 | 5.2 | 0.00 | 0.00 | 0.00 | 76 | 1016.3 |
| 20260905231321 | 81 | 95 | 4.3 | 6.1 | 0.00 | 0.00 | 0.00 | 76 | 1016.2 |
| 20260905230818 | 82 | 26 | 5.2 | 6.1 | 0.00 | 0.00 | 0.00 | 76 | 1016.4 |
| 20260905230315 | 82 | 60 | 5.2 | 7.0 | 0.00 | 0.00 | 0.00 | 75 | 1016.1 |
| 20260905225815 | 82 | 52 | 2.6 | 2.6 | 0.00 | 0.00 | 0.00 | 74 | 1016.2 |
| 20260905225310 | 82 | 49 | 4.3 | 6.1 | 0.00 | 0.00 | 0.00 | 75 | 1015.9 |
| 20260905224810 | 82 | 42 | 5.2 | 7.8 | 0.00 | 0.00 | 0.00 | 76 | 1015.9 |
| 20260905224305 | 82 | 57 | 3.5 | 5.2 | 0.00 | 0.00 | 0.00 | 76 | 1016.0 |
| 20260905223800 | 82 | 72 | 2.6 | 2.6 | 0.00 | 0.00 | 0.00 | 76 | 1016.1 |
| 20260905223258 | 82 | 71 | 2.6 | 3.5 | 0.00 | 0.00 | 0.00 | 77 | 1016.0 |
| 20260905222753 | 82 | 54 | 2.6 | 3.5 | 0.00 | 0.00 | 0.00 | 75 | 1016.2 |
| 20260905222252 | 83 | 35 | 7.0 | 8.7 | 0.00 | 0.00 | 0.00 | 74 | 1016.1 |
| 20260905221748 | 84 | 78 | 6.1 | 7.8 | 0.00 | 0.00 | 0.00 | 74 | 1016.2 |
| 20260905221244 | 84 | 71 | 1.7 | 2.6 | 0.00 | 0.00 | 0.00 | 73 | 1016.2 |
| 20260905220740 | 83 | 46 | 4.3 | 6.1 | 0.00 | 0.00 | 0.00 | 73 | 1016.2 |
| 20260905220236 | 83 | 48 | 2.6 | 3.5 | 0.00 | 0.00 | 0.00 | 73 | 1016.2 |
| 20260905215735 | 82 | 43 | 4.3 | 6.1 | 0.00 | 0.00 | 0.00 | 74 | 1016.2 |
| 20260905215231 | 83 | 53 | 7.0 | 7.0 | 0.00 | 0.00 | 0.00 | 73 | 1016.0 |
| 20260905214721 | 84 | 30 | 4.3 | 5.2 | 0.00 | 0.00 | 0.00 | 73 | 1016.2 |
| 20260905214216 | 83 | 51 | 3.5 | 6.1 | 0.00 | 0.00 | 0.00 | 74 | 1015.9 |
| 20260905213712 | 84 | 20 | 3.5 | 3.5 | 0.00 | 0.00 | 0.00 | 73 | 1016.0 |
| 20260905213208 | 84 | 57 | 7.8 | 8.7 | 0.00 | 0.00 | 0.00 | 72 | 1015.9 |
| 20260905212702 | 84 | 19 | 4.3 | 6.1 | 0.00 | 0.00 | 0.00 | 71 | 1016.0 |
| 20260905212156 | 83 | 65 | 3.5 | 3.5 | 0.00 | 0.00 | 0.00 | 73 | 1016.1 |
| 20260905211650 | 83 | 61 | 7.0 | 7.8 | 0.00 | 0.00 | 0.00 | 72 | 1015.9 |
| 20260905211145 | 83 | 353 | 3.5 | 5.2 | 0.00 | 0.00 | 0.00 | 73 | 1016.2 |
| 20260905210643 | 83 | 357 | 0.9 | 0.9 | 0.00 | 0.00 | 0.00 | 74 | 1016.1 |
| 20260905210136 | 82 | 51 | 4.3 | 6.1 | 0.00 | 0.00 | 0.00 | 77 | 1016.0 |
| 20260905205635 | 82 | 357 | 3.5 | 5.2 | 0.00 | 0.00 | 0.00 | 76 | 1016.1 |
| 20260905205130 | 82 | 7 | 5.2 | 7.0 | 0.00 | 0.00 | 0.00 | 76 | 1016.0 |
| 20260905204629 | 82 | 62 | 5.2 | 7.0 | 0.00 | 0.00 | 0.00 | 77 | 1015.8 |
| 20260905204125 | 83 | 53 | 1.7 | 1.7 | 0.00 | 0.00 | 0.00 | 74 | 1016.0 |
| 20260905203625 | 82 | 17 | 3.5 | 5.2 | 0.00 | 0.00 | 0.00 | 76 | 1016.1 |
| 20260905203120 | 81 | 43 | 5.2 | 8.7 | 0.00 | 0.00 | 0.00 | 78 | 1016.2 |
| 20260905202615 | 81 | 48 | 5.2 | 6.1 | 0.00 | 0.00 | 0.00 | 79 | 1016.5 |
| 20260905202110 | 81 | 65 | 3.5 | 6.1 | 0.00 | 0.00 | 0.00 | 79 | 1016.3 |
| 20260905201606 | 82 | 66 | 6.1 | 7.0 | 0.00 | 0.00 | 0.00 | 79 | 1016.7 |
| 20260905201106 | 82 | 38 | 4.3 | 6.1 | 0.00 | 0.00 | 0.00 | 80 | 1016.6 |
| 20260905200601 | 82 | 274 | 2.6 | 3.5 | 0.00 | 0.00 | 0.00 | 78 | 1016.4 |
| 20260905200056 | 82 | 40 | 3.5 | 7.0 | 0.00 | 0.00 | 0.00 | 79 | 1016.5 |
| 20260905195549 | 82 | 355 | 1.7 | 1.7 | 0.00 | 0.00 | 0.00 | 79 | 1016.5 |
| 20260905195045 | 82 | 57 | 6.1 | 8.7 | 0.00 | 0.00 | 0.00 | 79 | 1016.5 |
| 20260905194545 | 83 | 23 | 2.6 | 5.2 | 0.00 | 0.00 | 0.00 | 79 | 1016.4 |
| 20260905194044 | 83 | 66 | 3.5 | 7.0 | 0.00 | 0.00 | 0.00 | 78 | 1016.5 |
| 20260905193539 | 82 | 51 | 2.6 | 3.5 | 0.00 | 0.00 | 0.00 | 79 | 1016.4 |
| 20260905193034 | 83 | 53 | 4.3 | 6.1 | 0.00 | 0.00 | 0.00 | 79 | 1016.3 |
| 20260905192529 | 84 | 14 | 2.6 | 5.2 | 0.00 | 0.00 | 0.00 | 77 | 1016.3 |
| 20260905192026 | 84 | 58 | 3.5 | 5.2 | 0.00 | 0.00 | 0.00 | 76 | 1016.3 |
| 20260905191524 | 85 | 347 | 2.6 | 5.2 | 0.00 | 0.00 | 0.00 | 76 | 1016.4 |
| 20260905191023 | 83 | 72 | 5.2 | 7.8 | 0.00 | 0.00 | 0.00 | 78 | 1016.5 |
| 20260905190521 | 84 | 74 | 7.0 | 11.3 | 0.00 | 0.00 | 0.00 | 79 | 1016.4 |
| 20260905190016 | 84 | 19 | 4.3 | 7.0 | 0.00 | 0.00 | 0.00 | 79 | 1016.4 |
| 20260905185510 | 85 | 49 | 4.3 | 6.1 | 0.00 | 0.00 | 0.00 | 76 | 1016.6 |
| 20260905185009 | 85 | 40 | 3.5 | 3.5 | 0.00 | 0.00 | 0.00 | 75 | 1016.3 |
| 20260905184504 | 85 | 57 | 5.2 | 7.8 | 0.00 | 0.00 | 0.00 | 76 | 1016.4 |
| 20260905184002 | 86 | 43 | 3.5 | 5.2 | 0.00 | 0.00 | 0.00 | 76 | 1016.4 |
| 20260905183457 | 85 | 43 | 5.2 | 7.0 | 0.00 | 0.00 | 0.00 | 75 | 1016.3 |
| 20260905182952 | 86 | 66 | 4.3 | 5.2 | 0.00 | 0.00 | 0.00 | 75 | 1016.3 |
| 20260905182451 | 86 | 18 | 2.6 | 2.6 | 0.00 | 0.00 | 0.00 | 75 | 1016.2 |
| 20260905181946 | 86 | 345 | 5.2 | 7.8 | 0.00 | 0.00 | 0.00 | 74 | 1016.3 |
| 20260905181441 | 86 | 23 | 5.2 | 7.0 | 0.00 | 0.00 | 0.00 | 75 | 1016.2 |
| 20260905180940 | 87 | 78 | 2.6 | 3.5 | 0.00 | 0.00 | 0.00 | 74 | 1016.2 |
| 20260905180435 | 87 | 73 | 5.2 | 7.0 | 0.00 | 0.00 | 0.00 | 73 | 1016.2 |
| 20260905175930 | 87 | 23 | 5.2 | 7.0 | 0.00 | 0.00 | 0.00 | 74 | 1016.1 |
| 20260905175430 | 87 | 348 | 2.6 | 3.5 | 0.00 | 0.00 | 0.00 | 72 | 1016.0 |
| 20260905174925 | 87 | 69 | 3.5 | 6.1 | 0.00 | 0.00 | 0.00 | 71 | 1016.1 |
| 20260905174421 | 87 | 28 | 3.5 | 5.2 | 0.00 | 0.00 | 0.00 | 71 | 1016.3 |
| 20260905173916 | 87 | 30 | 5.2 | 7.8 | 0.00 | 0.00 | 0.00 | 72 | 1016.3 |
| 20260905173413 | 87 | 93 | 5.2 | 7.0 | 0.00 | 0.00 | 0.00 | 71 | 1016.3 |
| 20260905172912 | 87 | 43 | 5.2 | 6.1 | 0.00 | 0.00 | 0.00 | 71 | 1016.2 |
| 20260905172410 | 87 | 72 | 3.5 | 3.5 | 0.00 | 0.00 | 0.00 | 71 | 1016.2 |
| 20260905171906 | 88 | 3 | 2.6 | 3.5 | 0.00 | 0.00 | 0.00 | 68 | 1016.4 |
| 20260905171403 | 88 | 6 | 1.7 | 1.7 | 0.00 | 0.00 | 0.00 | 68 | 1016.6 |
| 20260905170859 | 87 | 348 | 4.3 | 6.1 | 0.00 | 0.00 | 0.00 | 69 | 1016.6 |
| 20260905170355 | 86 | 29 | 3.5 | 5.2 | 0.00 | 0.00 | 0.00 | 71 | 1016.7 |
| 20260905165855 | 87 | 48 | 3.5 | 5.2 | 0.00 | 0.00 | 0.00 | 71 | 1016.8 |
| 20260905165350 | 87 | 57 | 1.7 | 1.7 | 0.00 | 0.00 | 0.00 | 69 | 1016.8 |
| 20260905164850 | 87 | 19 | 5.2 | 7.8 | 0.00 | 0.00 | 0.00 | 69 | 1016.8 |
| 20260905164344 | 87 | 56 | 6.1 | 7.0 | 0.00 | 0.00 | 0.00 | 72 | 1016.4 |
| 20260905163841 | 87 | 78 | 3.5 | 5.2 | 0.00 | 0.00 | 0.00 | 71 | 1016.8 |
| 20260905163337 | 86 | 63 | 1.7 | 2.6 | 0.00 | 0.00 | 0.00 | 71 | 1016.6 |
| 20260905162833 | 86 | 29 | 3.5 | 3.5 | 0.00 | 0.00 | 0.00 | 73 | 1016.7 |
| 20260905162332 | 85 | 345 | 3.5 | 5.2 | 0.00 | 0.00 | 0.00 | 72 | 1016.8 |
| 20260905161827 | 86 | 23 | 3.5 | 5.2 | 0.00 | 0.00 | 0.00 | 73 | 1016.7 |
| 20260905161327 | 87 | 44 | 2.6 | 5.2 | 0.00 | 0.00 | 0.00 | 71 | 1016.5 |
| 20260905160825 | 86 | 38 | 3.5 | 5.2 | 0.00 | 0.00 | 0.00 | 73 | 1016.7 |
| 20260905160319 | 86 | 8 | 5.2 | 7.8 | 0.00 | 0.00 | 0.00 | 72 | 1016.7 |
| 20260905155814 | 85 | 29 | 3.5 | 6.1 | 0.00 | 0.00 | 0.00 | 73 | 1016.6 |
| 20260905155312 | 86 | 40 | 6.1 | 7.0 | 0.00 | 0.00 | 0.00 | 74 | 1016.6 |
| 20260905154807 | 86 | 34 | 3.5 | 5.2 | 0.00 | 0.00 | 0.00 | 73 | 1016.6 |
| 20260905154303 | 85 | 22 | 2.6 | 2.6 | 0.00 | 0.00 | 0.00 | 76 | 1016.4 |
| 20260905153758 | 86 | 76 | 3.5 | 5.2 | 0.00 | 0.00 | 0.00 | 74 | 1016.4 |
| 20260905153255 | 85 | 357 | 2.6 | 3.5 | 0.00 | 0.00 | 0.00 | 75 | 1016.3 |
| 20260905152749 | 85 | 30 | 3.5 | 3.5 | 0.00 | 0.00 | 0.00 | 75 | 1016.5 |
| 20260905152248 | 86 | 37 | 2.6 | 2.6 | 0.00 | 0.00 | 0.00 | 74 | 1016.3 |
| 20260905151748 | 85 | 41 | 2.6 | 5.2 | 0.00 | 0.00 | 0.00 | 74 | 1016.2 |
| 20260905151244 | 85 | 72 | 3.5 | 5.2 | 0.00 | 0.00 | 0.00 | 74 | 1016.2 |
| 20260905150743 | 85 | 0 | 3.5 | 5.2 | 0.00 | 0.00 | 0.00 | 75 | 1016.3 |
| 20260905150238 | 84 | 38 | 2.6 | 2.6 | 0.00 | 0.00 | 0.00 | 75 | 1016.4 |
| 20260905145735 | 85 | 36 | 1.7 | 2.6 | 0.00 | 0.00 | 0.00 | 75 | 1016.3 |
| 20260905145230 | 84 | 324 | 2.6 | 2.6 | 0.00 | 0.00 | 0.00 | 74 | 1016.2 |
| 20260905144728 | 85 | 63 | 1.7 | 2.6 | 0.00 | 0.00 | 0.00 | 74 | 1016.1 |
| 20260905144224 | 84 | 60 | 3.5 | 6.1 | 0.00 | 0.00 | 0.00 | 75 | 1015.9 |
| 20260905143718 | 86 | 5 | 3.5 | 5.2 | 0.00 | 0.00 | 0.00 | 75 | 1016.0 |
| 20260905143217 | 84 | 53 | 3.5 | 6.1 | 0.00 | 0.00 | 0.00 | 76 | 1015.8 |
| 20260905142716 | 84 | 1 | 2.6 | 2.6 | 0.00 | 0.00 | 0.00 | 78 | 1015.7 |
| 20260905142211 | 84 | 23 | 3.5 | 5.2 | 0.00 | 0.00 | 0.00 | 79 | 1015.6 |
| 20260905141706 | 83 | 6 | 1.7 | 2.6 | 0.00 | 0.00 | 0.00 | 80 | 1016.0 |
| 20260905141203 | 82 | 67 | 2.6 | 2.6 | 0.00 | 0.00 | 0.00 | 81 | 1015.7 |
| 20260905140657 | 82 | 26 | 1.7 | 2.6 | 0.00 | 0.00 | 0.00 | 81 | 1015.8 |
| 20260905140151 | 83 | 25 | 1.7 | 2.6 | 0.00 | 0.00 | 0.00 | 81 | 1015.6 |
| 20260905135646 | 82 | 29 | 0.9 | 1.7 | 0.00 | 0.00 | 0.00 | 82 | 1015.6 |
| 20260905135142 | 82 | 3 | 0.9 | 1.7 | 0.00 | 0.00 | 0.00 | 83 | 1015.6 |
| 20260905134641 | 81 | 24 | 0.9 | 0.9 | 0.00 | 0.00 | 0.00 | 85 | 1015.6 |
| 20260905134140 | 81 | 37 | 0.9 | 0.9 | 0.00 | 0.00 | 0.00 | 84 | 1015.5 |
| 20260905133636 | 81 | 12 | 1.7 | 1.7 | 0.00 | 0.00 | 0.00 | 85 | 1015.4 |
| 20260905133135 | 79 | 357 | 0.9 | 1.7 | 0.00 | 0.00 | 0.00 | 87 | 1015.4 |
| 20260905132635 | 79 | 354 | 0.9 | 0.9 | 0.00 | 0.00 | 0.00 | 88 | 1015.3 |
| 20260905132130 | 79 | 339 | 1.7 | 2.6 | 0.00 | 0.00 | 0.00 | 88 | 1015.2 |
| 20260905131625 | 78 | 4 | 0.9 | 0.9 | 0.00 | 0.00 | 0.00 | 88 | 1015.3 |
| 20260905131121 | 79 | 343 | 0.9 | 1.7 | 0.00 | 0.00 | 0.00 | 87 | 1015.3 |
| 20260905130621 | 78 | 344 | 0.0 | 0.9 | 0.00 | 0.00 | 0.00 | 88 | 1015.3 |
| 20260905130115 | 78 | 336 | 0.0 | 0.9 | 0.00 | 0.00 | 0.00 | 89 | 1015.4 |
| 20260905125614 | 78 | 350 | 0.9 | 0.9 | 0.00 | 0.00 | 0.00 | 88 | 1015.4 |
| 20260905125110 | 78 | 5 | 1.7 | 1.7 | 0.00 | 0.00 | 0.00 | 87 | 1015.3 |
| 20260905124601 | 79 | 353 | 0.0 | 0.9 | 0.00 | 0.00 | 0.00 | 86 | 1015.2 |
| 20260905124057 | 78 | 349 | 0.0 | 0.9 | 0.00 | 0.00 | 0.00 | 88 | 1015.2 |
| 20260905123552 | 77 | 354 | 0.0 | 0.9 | 0.00 | 0.00 | 0.00 | 90 | 1015.3 |
| 20260905123049 | 76 | 351 | 0.0 | 0.0 | 0.00 | 0.00 | 0.00 | 91 | 1015.2 |
| 20260905122548 | 75 | 344 | 0.0 | 0.0 | 0.00 | 0.00 | 0.00 | 93 | 1015.2 |
| 20260905122043 | 75 | 346 | 0.9 | 0.9 | 0.00 | 0.00 | 0.00 | 94 | 1015.1 |
| 20260905121537 | 74 | 357 | 0.0 | 0.0 | 0.00 | 0.00 | 0.00 | 96 | 1015.2 |
| 20260905121033 | 74 | 347 | 0.9 | 0.9 | 0.00 | 0.00 | 0.00 | 96 | 1015.0 |
| 20260905120532 | 73 | 349 | 1.7 | 1.7 | 0.00 | 0.00 | 0.00 | 97 | 1015.0 |
| 20260905120027 | 73 | 357 | 1.7 | 1.7 | 0.00 | 0.00 | 0.00 | 97 | 1015.1 |
| 20260905115526 | 73 | 342 | 0.9 | 0.9 | 0.00 | 0.00 | 0.00 | 97 | 1014.8 |
| 20260905115021 | 73 | 349 | 3.5 | 3.5 | 0.00 | 0.00 | 0.00 | 97 | 1014.9 |
| 20260905114520 | 74 | 0 | 1.7 | 1.7 | 0.00 | 0.00 | 0.00 | 97 | 1014.6 |
| 20260905114020 | 74 | 340 | 0.9 | 0.9 | 0.00 | 0.00 | 0.00 | 97 | 1014.6 |
| 20260905113515 | 74 | 339 | 0.9 | 0.9 | 0.00 | 0.00 | 0.00 | 97 | 1014.4 |
| 20260905113011 | 74 | 0 | 0.9 | 0.9 | 0.00 | 0.00 | 0.00 | 97 | 1014.3 |
| 20260905112506 | 74 | 348 | 0.9 | 1.7 | 0.00 | 0.00 | 0.00 | 97 | 1014.3 |
| 20260905112001 | 74 | 351 | 1.7 | 1.7 | 0.00 | 0.00 | 0.00 | 97 | 1014.3 |
| 20260905111500 | 74 | 344 | 0.0 | 0.9 | 0.00 | 0.00 | 0.00 | 97 | 1014.2 |
| 20260905110955 | 74 | 349 | 0.9 | 0.9 | 0.00 | 0.00 | 0.00 | 97 | 1014.2 |
| 20260905110454 | 74 | 337 | 0.0 | 0.9 | 0.00 | 0.00 | 0.00 | 97 | 1013.9 |
| 20260905105948 | 74 | 337 | 0.0 | 0.0 | 0.00 | 0.00 | 0.00 | 97 | 1013.5 |
| 20260905105443 | 74 | 340 | 0.0 | 0.0 | 0.00 | 0.00 | 0.00 | 97 | 1013.7 |
| 20260905104942 | 74 | 334 | 0.0 | 0.9 | 0.00 | 0.00 | 0.00 | 97 | 1013.9 |
| 20260905104438 | 74 | 339 | 0.9 | 0.9 | 0.00 | 0.00 | 0.00 | 97 | 1013.6 |
| 20260905103933 | 74 | 342 | 0.9 | 0.9 | 0.00 | 0.00 | 0.00 | 97 | 1013.7 |
| 20260905103429 | 75 | 357 | 0.0 | 0.0 | 0.00 | 0.00 | 0.00 | 96 | 1013.6 |
| 20260905102925 | 75 | 7 | 0.9 | 0.9 | 0.00 | 0.00 | 0.00 | 96 | 1013.7 |
| 20260905102421 | 75 | 354 | 0.0 | 0.9 | 0.00 | 0.00 | 0.00 | 97 | 1013.9 |
| 20260905101916 | 75 | 344 | 0.0 | 0.0 | 0.00 | 0.00 | 0.00 | 97 | 1013.7 |
| 20260905101414 | 75 | 344 | 0.0 | 0.0 | 0.00 | 0.00 | 0.00 | 97 | 1013.9 |
| 20260905100909 | 75 | 347 | 0.0 | 0.0 | 0.00 | 0.00 | 0.00 | 97 | 1014.1 |
| 20260905100404 | 75 | 353 | 0.9 | 0.9 | 0.00 | 0.00 | 0.00 | 97 | 1014.0 |
| 20260905095903 | 75 | 338 | 0.9 | 1.7 | 0.00 | 0.00 | 0.00 | 96 | 1014.2 |
| 20260905095359 | 75 | 345 | 0.9 | 0.9 | 0.00 | 0.00 | 0.00 | 96 | 1014.2 |
| 20260905094858 | 75 | 345 | 0.9 | 1.7 | 0.00 | 0.00 | 0.00 | 96 | 1014.0 |
| 20260905094354 | 75 | 349 | 0.0 | 0.0 | 0.00 | 0.00 | 0.00 | 96 | 1013.7 |
| 20260905093853 | 75 | 345 | 0.9 | 0.9 | 0.00 | 0.00 | 0.00 | 95 | 1014.1 |
| 20260905093348 | 75 | 338 | 0.0 | 0.0 | 0.00 | 0.00 | 0.00 | 95 | 1014.1 |
| 20260905092844 | 76 | 357 | 0.9 | 0.9 | 0.00 | 0.00 | 0.00 | 95 | 1014.3 |
| 20260905092344 | 75 | 348 | 0.0 | 0.9 | 0.00 | 0.00 | 0.00 | 95 | 1014.2 |
| 20260905091839 | 75 | 337 | 0.9 | 0.9 | 0.00 | 0.00 | 0.00 | 96 | 1014.2 |
| 20260905091333 | 75 | 338 | 0.9 | 0.9 | 0.00 | 0.00 | 0.00 | 96 | 1014.3 |
| 20260905090832 | 75 | 332 | 0.9 | 0.9 | 0.00 | 0.00 | 0.00 | 96 | 1014.2 |
| 20260905090328 | 75 | 337 | 0.0 | 0.9 | 0.00 | 0.00 | 0.00 | 96 | 1014.2 |
| 20260905085827 | 76 | 1 | 2.6 | 2.6 | 0.00 | 0.00 | 0.00 | 95 | 1014.3 |
| 20260905085322 | 76 | 352 | 0.9 | 1.7 | 0.00 | 0.00 | 0.00 | 95 | 1014.2 |
| 20260905084817 | 77 | 347 | 0.0 | 0.0 | 0.00 | 0.00 | 0.00 | 94 | 1014.3 |
| 20260905084317 | 76 | 339 | 0.0 | 0.0 | 0.00 | 0.00 | 0.00 | 95 | 1014.4 |
| 20260905083812 | 76 | 332 | 0.0 | 0.9 | 0.00 | 0.00 | 0.00 | 95 | 1014.5 |
| 20260905083308 | 76 | 330 | 0.9 | 0.9 | 0.00 | 0.00 | 0.00 | 95 | 1014.6 |
| 20260905082803 | 76 | 334 | 0.9 | 1.7 | 0.00 | 0.00 | 0.00 | 95 | 1014.6 |
| 20260905082259 | 77 | 352 | 0.9 | 0.9 | 0.00 | 0.00 | 0.00 | 95 | 1014.7 |
| 20260905081754 | 76 | 331 | 0.9 | 0.9 | 0.00 | 0.00 | 0.00 | 95 | 1014.4 |
| 20260905081249 | 76 | 342 | 0.0 | 0.9 | 0.00 | 0.00 | 0.00 | 95 | 1014.5 |
| 20260905080748 | 76 | 346 | 0.0 | 0.9 | 0.00 | 0.00 | 0.00 | 95 | 1014.6 |
| 20260905080242 | 76 | 7 | 1.7 | 1.7 | 0.00 | 0.00 | 0.00 | 95 | 1014.5 |
| 20260905075741 | 77 | 346 | 0.9 | 0.9 | 0.00 | 0.00 | 0.00 | 95 | 1014.6 |
| 20260905075240 | 77 | 355 | 0.9 | 0.9 | 0.00 | 0.00 | 0.00 | 94 | 1014.3 |
| 20260905074739 | 77 | 346 | 0.0 | 0.0 | 0.00 | 0.00 | 0.00 | 94 | 1014.3 |
| 20260905074235 | 78 | 347 | 0.0 | 0.9 | 0.00 | 0.00 | 0.00 | 93 | 1014.3 |
| 20260905073731 | 78 | 339 | 0.0 | 0.0 | 0.00 | 0.00 | 0.00 | 93 | 1014.3 |
| 20260905073226 | 78 | 315 | 0.9 | 0.9 | 0.00 | 0.00 | 0.00 | 93 | 1014.2 |
| 20260905072725 | 78 | 317 | 0.9 | 1.7 | 0.00 | 0.00 | 0.00 | 93 | 1014.3 |
| 20260905072221 | 78 | 310 | 0.9 | 0.9 | 0.00 | 0.00 | 0.00 | 94 | 1014.4 |
| 20260905071718 | 77 | 324 | 0.9 | 0.9 | 0.00 | 0.00 | 0.00 | 94 | 1014.4 |
| 20260905071213 | 77 | 340 | 0.9 | 0.9 | 0.00 | 0.00 | 0.00 | 95 | 1014.5 |
| 20260905070708 | 77 | 336 | 0.9 | 0.9 | 0.00 | 0.00 | 0.00 | 95 | 1014.5 |
| 20260905070204 | 77 | 344 | 0.0 | 0.0 | 0.00 | 0.00 | 0.00 | 95 | 1014.5 |
| 20260905065702 | 77 | 345 | 1.7 | 1.7 | 0.00 | 0.00 | 0.00 | 95 | 1014.7 |
| 20260905065157 | 78 | 359 | 1.7 | 1.7 | 0.00 | 0.00 | 0.00 | 94 | 1014.7 |
| 20260905064652 | 78 | 9 | 0.9 | 1.7 | 0.00 | 0.00 | 0.00 | 94 | 1014.6 |
| 20260905064148 | 78 | 341 | 0.0 | 0.9 | 0.00 | 0.00 | 0.00 | 94 | 1014.6 |
| 20260905063646 | 78 | 346 | 0.0 | 0.0 | 0.00 | 0.00 | 0.00 | 94 | 1014.5 |
| 20260905063143 | 78 | 345 | 0.9 | 0.9 | 0.00 | 0.00 | 0.00 | 94 | 1014.5 |
| 20260905062638 | 78 | 344 | 0.9 | 0.9 | 0.00 | 0.00 | 0.00 | 94 | 1014.4 |
| 20260905062137 | 78 | 332 | 0.9 | 0.9 | 0.00 | 0.00 | 0.00 | 94 | 1014.7 |
| 20260905061632 | 78 | 346 | 0.0 | 0.0 | 0.00 | 0.00 | 0.00 | 95 | 1014.8 |
| 20260905061132 | 78 | 17 | 4.3 | 5.2 | 0.00 | 0.00 | 0.00 | 95 | 1015.0 |
| 20260905060627 | 78 | 14 | 3.5 | 5.2 | 0.00 | 0.00 | 0.00 | 94 | 1014.7 |
| 20260905060124 | 79 | 359 | 0.9 | 0.9 | 0.00 | 0.00 | 0.00 | 93 | 1014.6 |
| 20260905055622 | 79 | 348 | 0.9 | 1.7 | 0.00 | 0.00 | 0.00 | 93 | 1014.6 |
| 20260905055118 | 79 | 326 | 0.9 | 0.9 | 0.00 | 0.00 | 0.00 | 93 | 1014.4 |
| 20260905054614 | 78 | 337 | 0.9 | 0.9 | 0.00 | 0.00 | 0.00 | 94 | 1014.3 |
| 20260905054109 | 78 | 344 | 0.0 | 0.0 | 0.00 | 0.00 | 0.00 | 94 | 1014.4 |
| 20260905053608 | 78 | 340 | 0.0 | 0.0 | 0.00 | 0.00 | 0.00 | 94 | 1014.6 |
| 20260905053103 | 79 | 353 | 1.7 | 1.7 | 0.00 | 0.00 | 0.00 | 94 | 1014.4 |
| 20260905052603 | 79 | 343 | 0.9 | 0.9 | 0.00 | 0.00 | 0.00 | 93 | 1014.3 |
| 20260905052057 | 79 | 347 | 0.9 | 0.9 | 0.00 | 0.00 | 0.00 | 93 | 1014.3 |
| 20260905051553 | 79 | 331 | 0.9 | 0.9 | 0.00 | 0.00 | 0.00 | 93 | 1014.3 |
| 20260905051050 | 79 | 4 | 0.9 | 0.9 | 0.00 | 0.00 | 0.00 | 93 | 1014.4 |
| 20260905050546 | 79 | 331 | 0.9 | 1.7 | 0.00 | 0.00 | 0.00 | 92 | 1014.4 |
| 20260905050042 | 80 | 348 | 0.9 | 1.7 | 0.00 | 0.00 | 0.00 | 92 | 1014.5 |
| 20260905045537 | 79 | 348 | 0.0 | 0.0 | 0.00 | 0.00 | 0.00 | 91 | 1014.3 |
| 20260905045032 | 80 | 0 | 0.9 | 0.9 | 0.00 | 0.00 | 0.00 | 90 | 1014.7 |
| 20260905044532 | 81 | 12 | 1.7 | 2.6 | 0.00 | 0.00 | 0.00 | 88 | 1014.8 |
| 20260905044027 | 81 | 357 | 0.9 | 0.9 | 0.00 | 0.00 | 0.00 | 86 | 1014.5 |
| 20260905043526 | 81 | 19 | 1.7 | 1.7 | 0.00 | 0.00 | 0.00 | 86 | 1014.4 |
| 20260905043021 | 81 | 351 | 0.9 | 0.9 | 0.00 | 0.00 | 0.00 | 86 | 1014.3 |
| 20260905042514 | 81 | 338 | 0.0 | 0.0 | 0.00 | 0.00 | 0.00 | 86 | 1014.1 |
| 20260905042004 | 81 | 337 | 0.9 | 0.9 | 0.00 | 0.00 | 0.00 | 86 | 1014.4 |
| 20260905041500 | 81 | 339 | 0.9 | 0.9 | 0.00 | 0.00 | 0.00 | 86 | 1014.4 |
| 20260905040955 | 81 | 346 | 0.0 | 0.0 | 0.00 | 0.00 | 0.00 | 85 | 1014.4 |
| 20260905040454 | 82 | 9 | 0.9 | 1.7 | 0.00 | 0.00 | 0.00 | 85 | 1014.4 |
| 20260905035953 | 82 | 24 | 0.9 | 0.9 | 0.00 | 0.00 | 0.00 | 84 | 1014.5 |
| 20260905035448 | 82 | 19 | 0.9 | 0.9 | 0.00 | 0.00 | 0.00 | 84 | 1014.5 |
| 20260905034946 | 82 | 17 | 1.7 | 1.7 | 0.00 | 0.00 | 0.00 | 84 | 1014.4 |
| 20260905034441 | 82 | 52 | 1.7 | 2.6 | 0.00 | 0.00 | 0.00 | 83 | 1014.4 |
| 20260905033940 | 82 | 32 | 0.9 | 1.7 | 0.00 | 0.00 | 0.00 | 83 | 1014.4 |
| 20260905033439 | 82 | 13 | 0.9 | 1.7 | 0.00 | 0.00 | 0.00 | 83 | 1014.4 |
| 20260905032934 | 82 | 14 | 0.9 | 0.9 | 0.00 | 0.00 | 0.00 | 83 | 1014.4 |
| 20260905032430 | 83 | 349 | 1.7 | 1.7 | 0.00 | 0.00 | 0.00 | 82 | 1014.4 |
| 20260905031924 | 83 | 351 | 0.9 | 0.9 | 0.00 | 0.00 | 0.00 | 81 | 1014.4 |
| 20260905031421 | 82 | 46 | 1.7 | 2.6 | 0.00 | 0.00 | 0.00 | 82 | 1014.4 |
| 20260905030916 | 82 | 11 | 0.9 | 1.7 | 0.00 | 0.00 | 0.00 | 82 | 1014.4 |
| 20260905030411 | 83 | 13 | 0.9 | 0.9 | 0.00 | 0.00 | 0.00 | 81 | 1014.6 |
| 20260905025910 | 83 | 14 | 0.0 | 0.9 | 0.00 | 0.00 | 0.00 | 81 | 1014.4 |
| 20260905025405 | 83 | 52 | 1.7 | 1.7 | 0.00 | 0.00 | 0.00 | 81 | 1014.4 |
| 20260905024902 | 83 | 9 | 0.9 | 0.9 | 0.00 | 0.00 | 0.00 | 80 | 1014.5 |
| 20260905024356 | 83 | 10 | 0.9 | 0.9 | 0.00 | 0.00 | 0.00 | 80 | 1014.2 |
| 20260905023852 | 84 | 4 | 0.0 | 0.9 | 0.00 | 0.00 | 0.00 | 78 | 1014.1 |
| 20260905023347 | 84 | 352 | 0.0 | 0.0 | 0.00 | 0.00 | 0.00 | 78 | 1014.0 |
| 20260905022846 | 84 | 37 | 1.7 | 1.7 | 0.00 | 0.00 | 0.00 | 78 | 1014.1 |
| 20260905022341 | 84 | 38 | 1.7 | 1.7 | 0.00 | 0.00 | 0.00 | 78 | 1014.1 |
| 20260905021836 | 84 | 0 | 0.9 | 0.9 | 0.00 | 0.00 | 0.00 | 77 | 1014.1 |
| 20260905021331 | 84 | 13 | 0.0 | 0.9 | 0.00 | 0.00 | 0.00 | 76 | 1013.9 |
| 20260905020826 | 84 | 2 | 1.7 | 2.6 | 0.00 | 0.00 | 0.00 | 76 | 1013.6 |
| 20260905020321 | 85 | 346 | 1.7 | 1.7 | 0.00 | 0.00 | 0.00 | 75 | 1013.6 |
| 20260905015820 | 85 | 347 | 0.0 | 0.9 | 0.00 | 0.00 | 0.00 | 74 | 1013.5 |
| 20260905015314 | 85 | 18 | 1.7 | 1.7 | 0.00 | 0.00 | 0.00 | 74 | 1013.4 |
| 20260905014813 | 86 | 328 | 1.7 | 2.6 | 0.00 | 0.00 | 0.00 | 73 | 1013.2 |
| 20260905014309 | 85 | 347 | 0.0 | 0.0 | 0.00 | 0.00 | 0.00 | 73 | 1012.9 |
| 20260905013804 | 86 | 301 | 1.7 | 1.7 | 0.00 | 0.00 | 0.00 | 73 | 1012.6 |
| 20260905013300 | 86 | 325 | 0.9 | 0.9 | 0.00 | 0.00 | 0.00 | 72 | 1012.4 |
| 20260905012755 | 86 | 352 | 0.9 | 0.9 | 0.00 | 0.00 | 0.00 | 71 | 1012.4 |
| 20260905012251 | 87 | 319 | 1.7 | 1.7 | 0.00 | 0.00 | 0.00 | 71 | 1012.6 |
| 20260905011748 | 87 | 235 | 3.5 | 5.2 | 0.00 | 0.00 | 0.00 | 70 | 1012.3 |
| 20260905011243 | 87 | 70 | 6.1 | 7.0 | 0.00 | 0.00 | 0.00 | 70 | 1012.2 |
| 20260905010737 | 88 | 231 | 2.6 | 3.5 | 0.00 | 0.00 | 0.00 | 69 | 1012.3 |
| 20260905010232 | 88 | 252 | 7.0 | 7.8 | 0.00 | 0.00 | 0.00 | 68 | 1012.3 |
| 20260905005729 | 89 | 290 | 5.2 | 7.8 | 0.00 | 0.00 | 0.00 | 66 | 1012.4 |
| 20260905005225 | 89 | 251 | 4.3 | 6.1 | 0.00 | 0.00 | 0.00 | 66 | 1012.4 |
| 20260905004724 | 88 | 250 | 6.1 | 7.0 | 0.00 | 0.00 | 0.00 | 67 | 1012.6 |
| 20260905004220 | 89 | 253 | 6.1 | 7.8 | 0.00 | 0.00 | 0.00 | 67 | 1012.9 |
| 20260905003720 | 89 | 262 | 7.0 | 7.8 | 0.00 | 0.00 | 0.00 | 68 | 1013.0 |
| 20260905003216 | 89 | 267 | 4.3 | 5.2 | 0.00 | 0.00 | 0.00 | 69 | 1013.0 |
| 20260905002711 | 89 | 251 | 3.5 | 5.2 | 0.00 | 0.00 | 0.00 | 68 | 1013.3 |
| 20260905002211 | 89 | 271 | 2.6 | 3.5 | 0.00 | 0.00 | 0.00 | 68 | 1013.4 |
| 20260905001706 | 90 | 248 | 2.6 | 3.5 | 0.00 | 0.00 | 0.00 | 67 | 1013.4 |
| 20260905001205 | 90 | 328 | 2.6 | 3.5 | 0.00 | 0.00 | 0.00 | 66 | 1013.5 |
| 20260905000700 | 91 | 290 | 2.6 | 2.6 | 0.00 | 0.00 | 0.00 | 65 | 1013.7 |
| 20260905000156 | 91 | 291 | 1.7 | 1.7 | 0.00 | 0.00 | 0.00 | 64 | 1013.6 |
| 20260904235657 | 91 | 304 | 1.7 | 1.7 | 0.00 | 0.00 | 0.00 | 64 | 1013.7 |
| 20260904235156 | 91 | 322 | 2.6 | 2.6 | 0.00 | 0.00 | 0.00 | 63 | 1013.6 |